Location: Middle Street
(51.7167°N, 0.0333°E)
Time: 19:33:28
(UTC+00:00)

Cosmos 1455 - Pass Details

Date: 20 January 2021
Orbit: 499 x 520 km, 82.5° (Epoch: 27 February)

Event Time Altitude Azimuth Distance (km) Brightness Sun altitude
Rises 17:18:49 0° 1° (N) 2,628 5.5 -7.8°
Reaches altitude 10° 17:21:29 10° 21° (NNE) 1,741 4.5 -8.2°
Maximum altitude 17:24:11 18° 66° (ENE) 1,304 3.6 -8.6°
Drops below altitude 10° 17:26:53 10° 111° (ESE) 1,741 4.4 -9.0°
Sets 17:29:32 0° 131° (SE) 2,626 5.5 -9.4°
